sat.trackr.live / text

‹ back to catalog

TELSTAR 12V

NORAD 41036 · 2015-068A

PAYLOAD ACTIVE UNKNOWN

§ Identity

Operator
Country
CA
Launch date
2015-11-24
Launch site
TANSC
Launch vehicle
Mass (kg)
RCS (m²)
29.95

Purposes: comms

External: N2YO · Heavens-Above · Gunter

§ Orbital elements

Epoch: 2026-05-25T03:40:17.675904Z

Period
1,436.10 min
Inclination
0.0370°
Eccentricity
0.0002398
Mean motion
1.00271684 rev/d
Perigee alt
35,776.5 km
Apogee alt
35,796.7 km
Semi-major
42,164.8 km
B*
0.0000e+0
RAAN
105.8121°
Arg perigee
312.4901°
Mean anomaly
224.5200°
Rev number
3,839

§ Raw data

TELSTAR 12V1 41036U 15068A   26145.15298236 -.00000121  00000+0  00000+0 0  99912 41036   0.0370 105.8121 0002398 312.4901 224.5200  1.00271684 38393

JSON: /api/v1/satellites/41036 · /tle

For live sub-satellite position, see the globe view (requires WebGL).

§ Visibility from observer

Set your observer location to see the next 7 days of passes ≥ 10°. The values pass through the URL so the page stays shareable.

No JS? Fill the form by hand. The geolocation button needs JavaScript.